• W Belgii
  • Katalog krajów
  • Na 7 dni
  • Temperatura wody
  • Satelitarne
  • Pogoda na mapie
  • Widgety
  • user-avatar
    Login

    Pogoda godzinowa w Podewsiach

    Dziś, 13 Listopada, Wtorek

    Czas Temperatura Opady Wiatr Ciśnienie Wilgotność
    00:00 +10°C° 0 mm 3 m/s 754 mmHg 84%
    01:00 +10°C° 0 mm 3 m/s 754 mmHg 83%
    02:00 +10°C° 0 mm 3 m/s 754 mmHg 83%
    03:00 +9°C° 0 mm 3 m/s 754 mmHg 83%
    04:00 +9°C° 0 mm 2 m/s 754 mmHg 83%
    05:00 +9°C° 0 mm 2 m/s 754 mmHg 83%
    06:00 +9°C° 0 mm 2 m/s 754 mmHg 83%
    07:00 +9°C° 0 mm 2 m/s 754 mmHg 84%
    08:00 +12°C° 0 mm 2 m/s 754 mmHg 79%
    09:00 +12°C° 0 mm 3 m/s 754 mmHg 75%
    10:00 +13°C° 0 mm 3 m/s 754 mmHg 71%
    11:00 +14°C° 0 mm 3 m/s 754 mmHg 69%
    12:00 +16°C° 0 mm 3 m/s 754 mmHg 66%
    13:00 +17°C° 0 mm 3 m/s 754 mmHg 64%
    14:00 +15°C° 0.1 mm 4 m/s 754 mmHg 68%
    15:00 +14°C° 0.1 mm 4 m/s 755 mmHg 72%
    16:00 +13°C° 0.1 mm 5 m/s 755 mmHg 76%
    17:00 +12°C° 0.1 mm 4 m/s 755 mmHg 78%
    18:00 +11°C° 0.1 mm 4 m/s 756 mmHg 80%
    19:00 +11°C° 0.1 mm 4 m/s 756 mmHg 83%
    20:00 +10°C° 0 mm 4 m/s 757 mmHg 83%
    21:00 +10°C° 0 mm 4 m/s 757 mmHg 83%
    22:00 +8°C° 0 mm 4 m/s 758 mmHg 83%
    23:00 +8°C° 0 mm 4 m/s 758 mmHg 84%

    Jutro, 14 Listopada, Środa

    Czas Temperatura Opady Wiatr Ciśnienie Wilgotność
    00:00 +7°C° 0 mm 4 m/s 758 mmHg 84%
    01:00 +7°C° 0 mm 4 m/s 758 mmHg 85%
    02:00 +7°C° 0 mm 4 m/s 758 mmHg 85%
    03:00 +6°C° 0 mm 4 m/s 758 mmHg 86%
    04:00 +6°C° 0 mm 4 m/s 758 mmHg 86%
    05:00 +6°C° 0 mm 4 m/s 759 mmHg 87%
    06:00 +5°C° 0 mm 4 m/s 759 mmHg 88%
    07:00 +5°C° 0 mm 4 m/s 759 mmHg 90%
    08:00 +6°C° 0 mm 4 m/s 759 mmHg 86%
    09:00 +7°C° 0 mm 4 m/s 760 mmHg 82%
    10:00 +8°C° 0 mm 4 m/s 760 mmHg 77%
    11:00 +8°C° 0 mm 4 m/s 760 mmHg 74%
    12:00 +10°C° 0 mm 4 m/s 760 mmHg 71%
    13:00 +11°C° 0 mm 4 m/s 760 mmHg 68%
    14:00 +10°C° 0 mm 3 m/s 760 mmHg 72%
    15:00 +9°C° 0 mm 2 m/s 760 mmHg 76%
    16:00 +8°C° 0 mm 2 m/s 760 mmHg 80%
    17:00 +9°C° 0 mm 1 m/s 760 mmHg 83%
    18:00 +8°C° 0 mm 1 m/s 760 mmHg 86%
    19:00 +8°C° 0 mm 1 m/s 760 mmHg 89%
    20:00 +7°C° 0 mm 1 m/s 760 mmHg 89%
    21:00 +7°C° 0 mm 1 m/s 761 mmHg 90%
    22:00 +7°C° 0 mm 1 m/s 761 mmHg 91%
    23:00 +7°C° 0 mm 1 m/s 761 mmHg 91%

    Pojutrze, 15 Listopada, Czwartek

    Czas Temperatura Opady Wiatr Ciśnienie Wilgotność
    00:00 +6°C° 0 mm 1 m/s 761 mmHg 91%
    01:00 +6°C° 0 mm 1 m/s 761 mmHg 91%
    02:00 +6°C° 0 mm 1 m/s 761 mmHg 91%
    03:00 +5°C° 0 mm 0 m/s 761 mmHg 91%
    04:00 +4°C° 0 mm 0 m/s 761 mmHg 91%
    05:00 +5°C° 0 mm 1 m/s 761 mmHg 90%
    06:00 +5°C° 0 mm 1 m/s 761 mmHg 90%
    07:00 +5°C° 0 mm 1 m/s 761 mmHg 90%
    08:00 +6°C° 0 mm 1 m/s 761 mmHg 86%
    09:00 +7°C° 0 mm 1 m/s 761 mmHg 81%
    10:00 +8°C° 0 mm 2 m/s 761 mmHg 76%
    11:00 +9°C° 0 mm 2 m/s 761 mmHg 72%
    12:00 +9°C° 0 mm 2 m/s 761 mmHg 69%
    13:00 +10°C° 0 mm 2 m/s 761 mmHg 65%
    14:00 +9°C° 0 mm 2 m/s 761 mmHg 69%
    15:00 +8°C° 0 mm 2 m/s 761 mmHg 74%
    16:00 +8°C° 0 mm 2 m/s 761 mmHg 79%
    17:00 +7°C° 0 mm 2 m/s 761 mmHg 82%
    18:00 +6°C° 0 mm 2 m/s 761 mmHg 85%
    19:00 +6°C° 0 mm 2 m/s 761 mmHg 88%
    20:00 +6°C° 0 mm 2 m/s 762 mmHg 89%
    21:00 +5°C° 0 mm 2 m/s 762 mmHg 90%
    22:00 +4°C° 0 mm 3 m/s 762 mmHg 91%
    23:00 +4°C° 0 mm 3 m/s 762 mmHg 91%

    16 Listopada, Piątek

    Czas Temperatura Opady Wiatr Ciśnienie Wilgotność
    00:00 +4°C° 0 mm 2 m/s 762 mmHg 91%
    01:00 +4°C° 0 mm 2 m/s 762 mmHg 92%
    02:00 +4°C° 0 mm 2 m/s 762 mmHg 91%
    03:00 +4°C° 0 mm 2 m/s 762 mmHg 91%
    04:00 +3°C° 0 mm 2 m/s 762 mmHg 91%
    05:00 +3°C° 0 mm 2 m/s 762 mmHg 91%
    06:00 +3°C° 0 mm 2 m/s 762 mmHg 91%
    07:00 +3°C° 0 mm 2 m/s 763 mmHg 91%
    08:00 +3°C° 0 mm 3 m/s 763 mmHg 86%
    09:00 +4°C° 0 mm 3 m/s 763 mmHg 82%
    10:00 +7°C° 0 mm 3 m/s 763 mmHg 77%
    11:00 +6°C° 0 mm 4 m/s 763 mmHg 73%
    12:00 +7°C° 0 mm 4 m/s 763 mmHg 69%
    13:00 +8°C° 0 mm 4 m/s 763 mmHg 66%
    14:00 +8°C° 0 mm 3 m/s 763 mmHg 70%
    15:00 +7°C° 0 mm 3 m/s 763 mmHg 74%
    16:00 +5°C° 0 mm 3 m/s 763 mmHg 78%
    17:00 +4°C° 0 mm 3 m/s 763 mmHg 80%
    18:00 +4°C° 0 mm 3 m/s 764 mmHg 83%
    19:00 +3°C° 0 mm 3 m/s 764 mmHg 85%
    20:00 +3°C° 0 mm 3 m/s 764 mmHg 86%
    21:00 +3°C° 0 mm 3 m/s 764 mmHg 87%
    22:00 +2°C° 0 mm 3 m/s 764 mmHg 88%
    23:00 +2°C° 0 mm 3 m/s 764 mmHg 89%

    17 Listopada, Sobota

    Czas Temperatura Opady Wiatr Ciśnienie Wilgotność
    00:00 +3°C° 0 mm 2 m/s 764 mmHg 90%
    01:00 +2°C° 0 mm 2 m/s 765 mmHg 90%
    02:00 +2°C° 0 mm 2 m/s 764 mmHg 91%
    03:00 +2°C° 0 mm 2 m/s 764 mmHg 91%
    04:00 +2°C° 0 mm 2 m/s 764 mmHg 91%
    05:00 +1°C° 0 mm 2 m/s 764 mmHg 91%
    06:00 +1°C° 0 mm 2 m/s 765 mmHg 91%
    07:00 +1°C° 0 mm 2 m/s 765 mmHg 91%
    08:00 +1°C° 0 mm 3 m/s 765 mmHg 84%
    09:00 +2°C° 0 mm 3 m/s 765 mmHg 77%
    10:00 +3°C° 0 mm 3 m/s 765 mmHg 70%
    11:00 +4°C° 0 mm 3 m/s 765 mmHg 66%
    12:00 +5°C° 0 mm 3 m/s 765 mmHg 61%
    13:00 +7°C° 0 mm 3 m/s 764 mmHg 56%
    14:00 +5°C° 0 mm 3 m/s 764 mmHg 60%
    15:00 +4°C° 0 mm 3 m/s 764 mmHg 63%
    16:00 +4°C° 0 mm 2 m/s 764 mmHg 67%
    17:00 +4°C° 0 mm 2 m/s 764 mmHg 69%
    18:00 +3°C° 0 mm 2 m/s 764 mmHg 72%
    19:00 +3°C° 0 mm 2 m/s 764 mmHg 74%
    20:00 +2°C° 0 mm 2 m/s 764 mmHg 75%
    21:00 +2°C° 0 mm 2 m/s 764 mmHg 75%
    22:00 +2°C° 0 mm 2 m/s 764 mmHg 76%
    23:00 +1°C° 0 mm 2 m/s 764 mmHg 77%

    18 Listopada, Niedziela

    Czas Temperatura Opady Wiatr Ciśnienie Wilgotność
    00:00 +1°C° 0 mm 2 m/s 764 mmHg 77%
    01:00 +1°C° 0 mm 2 m/s 764 mmHg 78%
    02:00 +1°C° 0 mm 2 m/s 763 mmHg 78%
    03:00 +1°C° 0 mm 2 m/s 763 mmHg 78%
    04:00 -1°C° 0 mm 2 m/s 763 mmHg 79%
    05:00 +1°C° 0 mm 1 m/s 763 mmHg 78%
    06:00 +1°C° 0 mm 1 m/s 762 mmHg 78%
    07:00 +1°C° 0 mm 1 m/s 762 mmHg 78%
    08:00 +2°C° 0 mm 1 m/s 762 mmHg 72%
    09:00 +3°C° 0 mm 1 m/s 762 mmHg 65%
    10:00 +5°C° 0 mm 1 m/s 762 mmHg 59%
    11:00 +6°C° 0 mm 1 m/s 761 mmHg 57%
    12:00 +6°C° 0 mm 1 m/s 761 mmHg 54%
    13:00 +7°C° 0 mm 1 m/s 760 mmHg 51%
    14:00 +6°C° 0 mm 1 m/s 760 mmHg 57%
    15:00 +5°C° 0 mm 1 m/s 759 mmHg 62%
    16:00 +5°C° 0 mm 1 m/s 759 mmHg 67%
    17:00 +3°C° 0 mm 2 m/s 758 mmHg 71%
    18:00 +2°C° 0 mm 2 m/s 758 mmHg 75%
    19:00 +2°C° 0 mm 2 m/s 758 mmHg 79%
    20:00 +2°C° 0 mm 2 m/s 757 mmHg 81%
    21:00 +3°C° 0 mm 2 m/s 757 mmHg 84%
    22:00 +3°C° 0 mm 2 m/s 757 mmHg 86%
    23:00 +2°C° 0 mm 3 m/s 756 mmHg 87%
    Pokaż więcej